Date String (YYYY-MM-DD hh:mm:ss) UTC,Instrument flags,absolute air pressure of the measurement (hPa),sample flow rate (lpm),inlet stack bypass flow (lpm),air temperature of the measurement (°C),ambient temperature measured by the external sensor (°C),aerosol sample conditioner tube jacket temperature (°C),OPC LED temperature (°C),internal box temperature (°C),relative humidity of the measurement (%),span deviation,mass concentration of particles derived from Lorenz-Mie calculation of OPC scattering (μg/m³),mass concentration of particles derived from Lorenz-Mie calculation of OPC scattering (μg/m³),mass concentration of particles derived from Lorenz-Mie calculation of OPC scattering (μg/m³)
DateTimeUTC,F1_M11,P_M11,Q1_M11,Q2_M11,T1_M11,T2_M11,T3_M11,T4_M11,T5_M11,U1_M11,ZSPAN_M11,X0_M11,X2_M11,X1_M11
2023-06-19 08:00:00,SystemResetWarning,0824.2,5.00,000.00,030.2,028.7,000.0,038.7,031.7,14.8,0000.0,0008.71,0003.54,0002.95
2023-06-19 08:01:00,SystemResetWarning,0824.1,5.00,000.00,030.2,028.6,000.0,038.7,031.7,14.7,0000.0,0008.75,0003.55,0002.95
2023-06-19 08:02:00,SystemResetWarning,0823.9,4.99,000.00,030.2,026.4,000.0,038.6,031.7,14.7,0000.0,0008.77,0003.55,0002.94
2023-06-19 08:03:00,SystemResetWarning,0824.0,5.01,000.00,030.2,024.7,000.0,038.6,031.6,14.7,0000.0,0008.62,0003.53,0002.94
2023-06-19 08:04:00,SystemResetWarning,0823.9,5.01,000.00,030.1,024.7,000.0,038.5,031.2,14.9,0000.0,0008.42,0003.53,0002.94
2023-06-19 08:05:00,SystemResetWarning,0824.0,5.00,000.00,029.9,025.1,000.0,038.5,031.0,15.0,0000.0,0008.73,0003.53,0002.95
2023-06-19 08:06:00,SystemResetWarning,0824.0,5.00,000.00,029.9,025.6,000.0,038.5,031.1,15.2,0000.0,0008.97,0003.55,0002.97
2023-06-19 08:07:00,SystemResetWarning,0823.9,5.01,000.00,029.8,026.0,000.0,038.5,031.0,15.3,0000.0,0008.94,0003.57,0002.98
2023-06-19 08:08:00,SystemResetWarning,0823.9,5.00,000.00,029.8,026.4,000.0,038.4,031.1,15.4,0000.0,0008.49,0003.59,0002.98
2023-06-19 08:09:00,SystemResetWarning,0824.0,5.01,000.00,029.8,026.8,000.0,038.4,031.1,15.3,0000.0,0008.94,0003.56,0002.99
2023-06-19 08:10:00,SystemResetWarning,0823.9,4.99,000.00,029.8,027.0,000.0,038.4,031.1,15.3,0000.0,0008.96,0003.54,0002.99
2023-06-19 08:11:00,SystemResetWarning,0823.9,4.99,000.00,029.8,027.3,000.0,038.4,031.1,15.4,0000.0,0009.02,0003.52,0002.99
2023-06-19 08:12:00,SystemResetWarning,0824.0,5.01,000.00,029.8,027.5,000.0,038.4,031.1,15.4,0000.0,0009.61,0003.52,0003.00
2023-06-19 08:13:00,SystemResetWarning,0823.9,5.00,000.00,029.8,027.6,000.0,038.4,031.1,15.5,0000.0,0009.56,0003.52,0003.00
2023-06-19 08:14:00,SystemResetWarning,0824.0,4.99,000.00,029.8,027.7,000.0,038.4,031.2,15.3,0000.0,0009.68,0003.55,0003.00
2023-06-19 08:15:00,SystemResetWarning,0823.9,5.00,000.00,029.8,027.8,000.0,038.4,031.2,15.3,0000.0,0009.67,0003.58,0003.00
2023-06-19 08:16:00,SystemResetWarning,0824.0,5.00,000.00,029.8,027.9,000.0,038.4,031.3,15.4,0000.0,0009.63,0003.57,0002.99
2023-06-19 08:17:00,SystemResetWarning,0823.9,5.01,000.00,029.8,028.0,000.0,038.4,031.3,15.6,0000.0,0009.47,0003.55,0002.97
2023-06-19 08:18:00,SystemResetWarning,0824.0,4.98,000.00,029.8,028.0,000.0,038.4,031.3,15.6,0000.0,0009.09,0003.54,0002.98
2023-06-19 08:19:00,SystemResetWarning,0823.9,4.99,000.00,029.8,028.1,000.0,038.4,031.3,15.6,0000.0,0008.62,0003.53,0002.97
2023-06-19 08:20:00,SystemResetWarning,0824.0,5.01,000.00,029.8,028.1,000.0,038.4,031.3,15.7,0000.0,0008.39,0003.50,0002.97
2023-06-19 08:21:00,SystemResetWarning,0823.9,5.01,000.00,029.8,028.2,000.0,038.4,031.3,15.7,0000.0,0008.41,0003.50,0002.98
2023-06-19 08:22:00,SystemResetWarning,0823.9,5.00,000.00,029.9,028.2,000.0,038.4,031.3,15.5,0000.0,0008.90,0003.54,0002.98
2023-06-19 08:23:00,SystemResetWarning,0824.0,4.99,000.00,029.9,028.2,000.0,038.4,031.3,15.2,0000.0,0008.39,0003.54,0002.97
2023-06-19 08:24:00,SystemResetWarning,0824.0,4.99,000.00,029.9,028.3,000.0,038.4,031.3,15.2,0000.0,0008.43,0003.56,0002.99
2023-06-19 08:25:00,SystemResetWarning,0824.0,5.00,000.00,029.9,028.3,000.0,038.4,031.4,15.2,0000.0,0008.28,0003.52,0003.00
2023-06-19 08:26:00,SystemResetWarning,0824.0,5.00,000.00,029.9,028.3,000.0,038.4,031.4,15.2,0000.0,0008.01,0003.49,0002.99
2023-06-19 08:27:00,SystemResetWarning,0823.9,5.00,000.00,029.9,028.4,000.0,038.4,031.4,15.6,0000.0,0007.83,0003.51,0002.98
2023-06-19 08:28:00,SystemResetWarning,0824.0,5.01,000.00,030.0,028.4,000.0,038.5,031.4,16.0,0000.0,0007.73,0003.52,0003.00
2023-06-19 08:29:00,SystemResetWarning,0824.0,5.01,000.00,030.0,028.4,000.0,038.5,031.5,16.0,0000.0,0007.99,0003.49,0002.98
2023-06-19 08:30:00,SystemResetWarning,0824.0,5.00,000.00,030.0,028.4,000.0,038.5,031.5,15.5,0000.0,0008.14,0003.52,0002.99
2023-06-19 08:31:00,SystemResetWarning,0824.0,5.00,000.00,030.0,028.4,000.0,038.5,031.5,15.2,0000.0,0007.98,0003.56,0002.98
2023-06-19 08:32:00,SystemResetWarning,0824.0,5.00,000.00,030.0,028.4,000.0,038.5,031.5,15.3,0000.0,0008.13,0003.57,0002.98
2023-06-19 08:33:00,SystemResetWarning,0824.0,5.00,000.00,030.0,028.5,000.0,038.5,031.6,15.3,0000.0,0008.22,0003.55,0002.98
2023-06-19 08:34:00,SystemResetWarning,0824.0,5.00,000.00,030.1,028.5,000.0,038.5,031.5,15.3,0000.0,0008.05,0003.55,0003.00
2023-06-19 08:35:00,SystemResetWarning,0824.0,4.99,000.00,030.1,028.5,000.0,038.6,031.5,15.3,0000.0,0008.15,0003.57,0003.00
2023-06-19 08:36:00,SystemResetWarning,0824.0,5.00,000.00,030.1,028.5,000.0,038.6,031.6,15.2,0000.0,0008.25,0003.58,0003.01
2023-06-19 08:37:00,SystemResetWarning,0824.0,5.01,000.00,030.1,028.5,000.0,038.6,031.6,15.1,0000.0,0008.40,0003.60,0003.02
2023-06-19 08:38:00,SystemResetWarning,0824.0,5.00,000.00,030.1,028.5,000.0,038.6,031.6,15.2,0000.0,0008.31,0003.57,0003.02
2023-06-19 08:39:00,SystemResetWarning,0824.0,5.01,000.00,030.1,028.6,000.0,038.6,031.6,15.0,0000.0,0008.29,0003.58,0003.02
2023-06-19 08:40:00,SystemResetWarning,0824.1,4.99,000.00,030.1,028.6,000.0,038.6,031.6,15.1,0000.0,0008.04,0003.60,0003.05
2023-06-19 08:41:00,SystemResetWarning,0824.2,4.99,000.00,030.2,028.6,000.0,038.6,031.7,15.4,0000.0,0007.91,0003.58,0003.05
2023-06-19 08:42:00,SystemResetWarning,0824.1,4.99,000.00,030.2,028.6,000.0,038.7,031.7,15.1,0000.0,0007.62,0003.54,0003.05
2023-06-19 08:43:00,SystemResetWarning,0824.0,5.01,000.00,030.2,028.6,000.0,038.7,031.7,15.1,0000.0,0007.48,0003.56,0003.06
2023-06-19 08:44:00,SystemResetWarning,0824.0,5.00,000.00,030.2,028.7,000.0,038.7,031.7,15.0,0000.0,0007.65,0003.54,0003.06
2023-06-19 08:45:00,SystemResetWarning,0824.0,5.01,000.00,030.2,028.7,000.0,038.7,031.7,15.2,0000.0,0007.98,0003.54,0003.06
2023-06-19 08:46:00,SystemResetWarning,0824.0,5.00,000.00,030.2,028.7,000.0,038.7,031.8,15.1,0000.0,0007.89,0003.53,0003.05
2023-06-19 08:47:00,SystemResetWarning,0824.0,5.00,000.00,030.2,028.7,000.0,038.7,031.8,15.4,0000.0,0007.79,0003.51,0003.04
2023-06-19 08:48:00,SystemResetWarning,0824.0,5.00,000.00,030.3,028.7,000.0,038.7,031.7,15.1,0000.0,0007.65,0003.49,0003.04
2023-06-19 08:49:00,SystemResetWarning,0824.0,5.00,000.00,030.3,028.7,000.0,038.8,031.8,15.1,0000.0,0008.40,0003.50,0003.04
2023-06-19 08:50:00,SystemResetWarning,0824.0,4.99,000.00,030.3,028.7,000.0,038.8,031.8,15.1,0000.0,0008.42,0003.50,0003.04
2023-06-19 08:51:00,SystemResetWarning,0824.0,5.00,000.00,030.3,028.7,000.0,038.8,031.8,15.2,0000.0,0008.64,0003.53,0003.04
2023-06-19 08:52:00,SystemResetWarning,0824.0,5.00,000.00,030.3,028.7,000.0,038.8,031.8,15.1,0000.0,0008.72,0003.53,0003.03
2023-06-19 08:53:00,SystemResetWarning,0824.0,5.00,000.00,030.3,028.7,000.0,038.8,031.8,15.0,0000.0,0008.71,0003.53,0003.03
2023-06-19 08:54:00,SystemResetWarning,0824.0,5.00,000.00,030.3,028.7,000.0,038.8,031.8,15.1,0000.0,0008.67,0003.52,0003.02
2023-06-19 08:55:00,SystemResetWarning,0824.0,5.01,000.00,030.3,028.7,000.0,038.8,031.8,15.1,0000.0,0008.06,0003.55,0003.01
2023-06-19 08:56:00,SystemResetWarning,0824.0,5.01,000.00,030.3,028.8,000.0,038.8,031.8,15.1,0000.0,0007.72,0003.54,0003.01
2023-06-19 08:57:00,SystemResetWarning,0824.0,5.00,000.00,030.4,028.7,000.0,038.8,031.9,15.1,0000.0,0007.80,0003.56,0003.00
2023-06-19 08:58:00,SystemResetWarning,0824.0,4.98,000.00,030.3,026.6,000.0,038.8,031.7,15.1,0000.0,0007.90,0003.59,0003.01
2023-06-19 08:59:00,SystemResetWarning,0824.0,5.01,000.00,030.3,024.9,000.0,038.7,031.6,15.0,0000.0,0007.98,0003.63,0003.01
